SCP
0 0 0 0 0 0 0 0 0 0 0 0 0 0 0 0 0 0 0 0 0 0 0 0 0 0 0 0 0 0 0 0 0 0 0 0 0 0 0 0 0 0 0
0 0 0 0 0 0 0 0 0 0 0 0 0 0 0 0 0 0 0 0 0 0 0 0 0 0 0 0 0 0 0 0 0 0 0 0 0 0 0 0 0 0 0
0 0 0 0 0 0 0 0 0 0 0 0 1 0 0 0 0 0 0 0 0 0 0 0 0 1 1 1 1 1 0 0 0 0 0 0 0 0 0 0 0 0 0
0 0 0 0 0 0 0 0 0 0 0 1 1 1 0 0 0 0 0 0 0 0 0 0 0 0 1 1 1 1 1 1 1 1 1 0 0 0 0 0 0 0 0
0 0 0 0 0 0 0 0 0 0 1 1 1 1 1 0 0 0 0 0 0 0 0 0 0 0 0 1 1 1 1 1 1 1 1 1 1 1 0 0 0 0 0
0 0 0 0 0 0 0 1 1 1 1 1 1 1 1 1 0 0 0 0 0 0 0 0 0 0 0 0 1 1 1 1 1 1 1 1 1 1 1 1 0 0 0
0 0 0 0 0 0 0 0 0 0 0 1 1 1 1 1 1 1 0 0 0 1 0 0 0 0 0 0 0 0 1 1 1 1 2 2 2 2 1 1 1 1 1
0 0 0 0 0 0 0 0 0 0 0 0 1 1 1 1 1 1 1 0 1 1 1 0 0 0 0 0 0 0 0 1 1 1 2 2 2 2 2 2 1 1 1
0 0 0 0 0 0 0 0 0 0 0 0 0 0 0 0 0 0 0 0 0 1 1 1 0 0 0 0 0 0 0 0 1 1 1 2 2 2 2 2 1 1 1
0 0 0 0 0 0 0 0 0 0 0 0 0 0 0 0 0 0 0 0 0 0 1 1 1 0 0 0 1 1 1 1 1 1 1 1 1 2 2 2 2 1 1
0 0 0 0 0 0 0 0 0 0 0 0 0 0 0 0 0 0 0 0 0 0 0 1 1 1 1 1 1 1 1 1 1 1 1 1 1 1 2 2 2 1 1
0 0 0 0 0 0 0 0 0 0 0 0 0 0 0 0 0 0 0 0 0 0 0 0 1 1 1 1 1 1 1 1 1 1 1 1 1 1 1 2 2 2 2
0 0 0 0 0 0 0 0 0 0 0 0 0 0 0 0 0 0 0 0 0 0 0 0 0 0 0 0 0 0 1 1 1 1 1 1 1 1 1 1 1 2 2
0 0 0 0 0 0 0 0 0 0 0 0 0 0 0 0 0 0 0 0 0 0 0 0 0 0 0 0 0 0 0 0 0 0 0 0 0 1 1 1 1 1 2
0 0 0 0 0 0 0 0 0 0 0 0 0 0 0 0 0 0 0 0 0 0 0 0 0 0 0 0 0 0 0 0 0 0 0 0 0 0 0 0 1 1 1
0 0 0 0 0 0 0 0 0 0 0 0 0 0 0 0 0 0 0 0 0 0 0 0 0 0 0 0 0 0 0 0 0 0 0 0 0 0 0 0 0 0 1
0 0 0 0 0 0 0 0 0 0 0 0 0 0 0 0 0 0 0 0 0 0 0 0 0 0 0 0 0 0 0 0 0 0 0 0 0 0 0 0 0 0 0
0 0 0 0 0 0 0 0 0 0 0 0 0 0 0 0 0 0 0 0 0 0 0 0 0 0 0 0 0 0 0 0 0 0 0 0 0 0 0 0 0 0 0
0 0 0 0 0 0 0 0 0 0 0 0 0 0 0 0 0 0 0 0 0 0 0 0 0 0 0 0 0 0 0 0 0 0 0 0 0 0 0 0 0 0 0
0 0 0 0 0 0 0 0 0 0 0 0 0 0 0 0 0 0 0 0 0 0 0 0 0 0 0 0 0 0 0 0 0 0 0 0 0 0 0 0 0 0 0
0 0 0 0 0 0 0 0 0 0 0 0 0 0 0 0 0 0 0 0 0 0 0 0 0 0 0 0 0 0 0 0 0 0 0 0 0 0 0 0 0 0 0
0 0 0 0 0 0 0 0 0 0 0 0 0 0 0 0 0 0 0 0 0 0 0 0 0 0 0 0 0 0 0 0 0 0 0 0 0 0 0 0 0 0 0
0 0 0 0 0 0 0 0 0 0 0 0 0 0 0 0 0 0 0 0 0 0 0 0 0 0 0 0 0 0 0 0 0 0 0 0 0 0 0 0 0 0 0
0 0 0 0 0 0 0 0 0 0 0 0 0 0 0 0 0 0 0 0 0 0 0 0 0 0 0 0 0 0 0 0 0 0 0 0 0 0 0 0 0 0 0
0 0 0 0 0 0 0 0 0 0 0 0 0 0 0 0 0 0 0 0 0 0 0 0 0 0 0 0 0 0 0 0 0 0 0 0 0 0 0 0 0 0 0
0 0 0 0 0 0 0 0 0 0 0 0 0 0 0 0 0 0 0 0 0 0 0 0 0 0 0 0 0 0 0 0 0 0 0 0 0 0 0 0 0 0 0
Wind_Speed
16 13 11 10 10 10 11 12 12 11 10 8 8 8 9 9 9 10 11 12 12 12 12 9 10 9 9 10 10 9 9 8 6 6 7 9 11 12 11 10 10 11 11
15 13 12 10 10 11 11 11 12 12 12 10 9 8 8 8 9 8 10 12 12 12 11 12 10 10 9 11 11 10 7 7 7 6 5 6 6 7 8 9 9 10 9
17 15 12 11 10 11 11 10 12 12 12 12 9 7 7 6 7 9 9 12 13 13 12 13 11 10 10 9 11 10 11 9 7 8 7 6 6 5 5 7 7 8 8
17 15 13 12 10 10 9 10 11 11 11 11 11 12 10 10 11 9 8 10 12 13 13 13 12 11 10 10 10 11 10 10 8 7 9 9 7 6 6 5 6 8 9
15 14 12 10 9 8 8 8 9 10 10 11 12 13 12 10 8 8 9 9 9 11 12 12 11 11 10 11 11 10 11 9 10 8 6 8 9 10 9 10 9 7 8
11 11 10 8 8 6 6 7 8 8 8 10 11 13 13 12 10 9 8 8 7 8 11 11 11 11 10 11 11 10 12 11 11 10 8 7 7 8 9 11 11 11 9
8 8 7 7 6 6 5 6 7 8 7 8 10 11 13 12 12 10 9 8 7 7 9 9 10 9 10 10 10 10 10 11 12 11 9 9 10 9 9 11 11 11 10
6 6 6 6 6 5 5 5 6 6 6 7 8 8 9 8 7 9 8 8 6 7 7 8 8 9 9 9 9 8 9 9 11 11 11 9 9 9 9 9 10 11 10
7 6 6 6 5 5 5 5 5 5 5 6 6 7 7 7 7 7 7 6 6 5 7 7 7 8 8 8 8 7 9 8 9 10 11 10 9 8 8 8 9 10 12
6 6 5 4 4 4 4 4 4 4 4 4 4 4 5 6 6 5 6 6 6 6 6 6 7 7 7 7 7 7 8 9 9 7 10 10 8 8 8 8 9 9 11
7 5 4 3 3 2 2 2 3 3 3 3 3 3 3 3 4 4 4 5 5 5 5 5 5 5 6 6 6 7 7 9 9 9 10 11 10 9 8 8 8 9 10
5 5 4 3 2 2 2 2 1 2 2 2 2 2 2 2 2 2 2 2 3 3 4 4 4 5 5 5 5 7 7 8 9 9 9 10 8 11 9 8 10 9 9
5 4 4 3 3 2 1 1 1 1 1 1 1 2 2 2 2 2 1 1 2 2 2 3 3 3 3 4 5 5 6 7 8 8 9 9 9 10 9 10 10 9 8
6 5 5 4 3 2 2 1 1 1 1 1 1 1 1 1 1 1 1 1 1 1 1 1 2 2 2 2 3 4 5 6 7 8 8 9 9 10 10 9 10 9 10
9 8 7 5 4 3 3 2 1 0 0 0 0 0 0 0 0 0 0 0 0 0 1 1 1 1 1 2 3 4 5 6 6 7 7 8 8 10 9 8 9 9 9
12 10 8 7 6 5 4 3 2 1 1 1 1 0 1 1 1 1 1 1 1 1 1 1 1 1 1 3 4 5 5 5 5 6 6 7 7 8 10 11 12 12 11
13 11 10 8 7 6 5 5 3 2 2 2 1 1 1 1 2 2 1 1 1 1 1 1 1 1 3 4 5 5 4 4 5 5 6 5 5 7 9 10 11 11 12
12 10 9 8 6 5 5 4 3 3 2 2 1 1 1 1 2 2 2 2 1 1 1 1 2 2 3 5 5 5 4 4 4 5 6 6 7 7 8 9 10 9 9
10 8 8 7 5 5 5 4 4 3 3 2 1 1 1 2 2 2 1 1 1 1 1 2 3 3 4 5 6 6 3 4 5 5 5 6 7 9 9 9 10 10 9
5 5 5 5 5 5 5 5 5 4 3 2 2 1 1 1 1 1 1 1 1 1 1 2 2 3 4 6 7 7 3 4 4 4 4 5 8 10 10 8 9 11 10
3 3 4 4 4 4 5 5 5 4 3 2 1 1 1 1 1 1 1 1 1 1 1 2 2 3 3 5 7 8 4 4 5 5 5 5 9 11 12 11 9 11 11
3 3 4 3 3 4 5 5 4 2 2 3 2 1 1 1 1 1 1 1 1 1 1 2 2 2 3 4 6 8 7 7 5 5 5 6 11 12 13 10 10 12 10
3 3 4 4 3 2 3 4 2 2 3 3 2 2 1 1 1 1 1 1 1 0 1 1 2 3 3 4 6 7 8 9 6 5 8 11 12 12 9 10 11 9 6
3 3 4 4 3 2 3 2 2 3 3 3 2 2 2 1 1 1 0 0 0 0 1 1 2 3 3 3 4 4 5 6 5 5 7 10 10 9 8 7 7 5 5
3 3 3 3 3 3 3 2 2 3 3 3 2 1 1 1 1 1 1 1 1 1 1 2 2 3 4 5 8 6 5 5 5 6 5 5 5 5 5 5 5 5 5
4 3 3 3 3 3 2 2 1 2 2 2 2 1 1 1 0 0 1 2 2 3 3 3 3 3 5 8 8 9 9 9 8 5 4 5 5 5 6 6 6 5 5
Wind_Direction
254 252 245 237 232 229 226 224 222 220 214 210 210 213 219 220 221 223 223 221 221 219 219 222 224 219 222 225 225 226 232 234 234 252 266 262 252 250 249 247 248 246 245
251 248 245 237 231 230 228 227 225 221 215 213 211 215 219 220 222 221 222 222 221 221 220 223 223 220 223 228 227 223 229 232 214 229 261 279 268 239 240 243 244 249 248
252 250 243 240 235 234 231 227 226 224 220 216 214 214 220 225 221 221 221 220 221 221 221 224 225 224 222 228 227 223 227 235 226 221 232 253 268 297 247 236 241 245 246
248 249 247 244 240 239 237 233 230 226 223 215 213 211 213 220 224 222 221 222 220 222 223 225 226 227 226 230 230 226 227 232 236 225 228 241 265 274 287 254 243 246 249
246 246 247 248 248 244 237 234 232 228 223 216 215 215 222 228 232 226 225 225 221 222 224 225 226 228 229 232 233 229 228 229 235 232 225 233 241 243 258 275 275 263 255
239 242 247 248 250 249 240 236 232 231 227 220 217 217 221 225 228 228 226 224 223 222 224 224 226 229 231 234 235 234 232 232 236 238 234 230 234 236 242 257 268 272 271
236 242 247 248 250 253 248 240 236 235 228 222 220 221 224 225 226 228 228 226 223 223 226 225 228 230 233 236 237 236 236 235 237 239 240 238 241 247 249 257 267 271 275
241 241 247 251 251 249 248 243 239 242 236 225 223 225 227 228 230 230 229 227 228 229 230 228 231 233 234 236 235 237 239 240 240 242 243 245 244 244 244 251 264 273 272
237 242 248 253 254 251 248 246 242 241 241 233 226 224 221 224 228 229 229 231 231 231 228 226 227 231 234 237 236 237 239 241 243 246 247 248 249 247 248 249 249 260 274
235 243 250 254 255 259 261 255 247 242 243 239 232 231 227 224 226 225 224 226 230 230 228 226 228 232 234 236 239 244 244 244 246 247 250 251 252 251 247 246 247 247 259
234 243 249 250 252 256 261 256 249 248 250 243 231 218 223 224 224 224 227 228 229 228 228 228 230 235 238 240 241 245 252 253 254 252 252 254 255 254 252 249 249 250 252
241 246 248 245 244 248 261 264 265 258 259 254 238 223 217 212 208 215 227 232 234 232 232 232 232 236 240 242 247 251 254 257 260 262 262 261 260 258 257 254 253 253 252
251 254 254 254 258 260 257 263 274 284 287 251 222 222 220 212 211 218 226 226 229 238 241 237 238 244 248 251 256 260 263 265 267 268 268 270 270 267 265 264 262 260 259
249 251 255 257 256 251 245 245 266 302 307 268 223 217 229 221 215 214 210 212 226 232 243 252 257 261 263 271 281 278 276 274 274 274 273 274 273 274 277 273 270 269 267
248 243 241 242 243 242 240 234 237 268 233 193 164 258 285 244 148 99 73 71 55 7 318 316 320 316 298 314 310 295 282 279 279 281 281 280 282 282 280 279 280 279 273
246 245 238 232 231 230 233 231 224 207 186 171 161 100 67 60 56 60 61 57 51 38 25 9 0 349 343 349 336 316 290 285 286 290 292 290 286 290 285 280 278 274 273
246 242 237 232 226 223 220 225 221 192 177 174 149 117 99 82 60 50 55 55 44 36 24 2 350 334 340 345 334 322 297 291 289 292 295 296 303 302 300 295 286 276 270
243 238 235 233 221 209 208 208 192 182 180 185 173 151 136 107 77 67 55 40 27 18 6 347 336 327 337 346 339 328 302 295 293 293 295 298 303 309 310 303 296 289 285
237 234 228 225 214 203 194 182 182 181 177 187 195 188 161 138 125 109 78 40 20 6 2 349 340 334 338 349 344 337 314 300 298 299 302 303 305 317 318 307 301 299 296
231 224 215 205 202 199 179 177 185 184 189 196 197 192 177 165 160 134 101 61 38 7 356 347 341 336 338 349 349 343 323 311 309 309 306 306 311 318 320 307 302 299 303
215 201 187 191 198 185 176 183 188 194 189 162 148 148 158 145 120 87 64 62 51 29 357 342 340 341 340 344 350 348 333 321 314 310 312 315 322 319 315 309 300 300 307
173 171 174 176 172 172 176 179 186 175 142 133 130 122 106 99 98 95 78 57 50 35 356 349 344 345 342 339 342 341 337 329 310 308 313 317 323 320 317 313 311 310 309
161 159 154 149 141 146 165 173 161 131 132 128 129 120 94 76 84 110 101 76 71 43 338 331 320 326 331 331 335 334 334 333 321 313 317 318 320 318 316 318 317 312 307
146 144 143 142 137 116 109 118 118 128 130 133 134 126 117 91 53 43 70 174 225 291 309 317 314 317 319 325 330 330 329 326 321 317 317 317 316 312 311 315 319 315 312
143 144 151 146 134 110 96 85 97 124 131 131 126 119 106 92 64 25 341 299 309 300 287 291 290 300 307 325 334 332 326 323 320 317 313 316 320 324 325 322 320 317 316
142 142 140 135 127 113 94 60 54 106 132 135 130 130 132 137 151 104 7 1 321 332 322 315 305 305 309 315 322 325 327 331 330 324 314 316 318 318 317 316 316 315 313